Location: Unspecified
(52.0000°N, 4.4000°E)
Time: 06:14:41
(UTC+00:00)

Cosmos 2360 Rocket - Pass Details

Date: 14 May 2025
Orbit: 834 x 842 km, 71.0° (Epoch: 22 June)

Event Time Altitude Azimuth Distance (km) Brightness Sun altitude
Rises 22:44:22 0° 330° (NNW) 3,395 6.8 -18.1°
Reaches altitude 10° 22:47:11 10° 342° (NNW) 2,458 5.9 -18.2°
Maximum altitude 22:51:59 28° 40° (NE) 1,532 3.9 -18.4°
Drops below altitude 10° 22:56:45 10° 99° (E) 2,448 4.4 -18.5°
Enters shadow 22:58:18 - 106° (ESE) 2,950 4.8 -18.6°
